{"data":{"norad_id":87129,"epoch":"2026-05-19T05:04:46.305120Z","epoch_age_seconds":578240,"freshness":"STALE","line1":"1 87129U          26139.21164705  .00000107  00000+0  11009-2 0  9994","line2":"2 87129 102.2580 237.0287 0036768 153.3129 206.9837 12.42889301566235","mean_motion":12.42889301,"eccentricity":0.0036768,"inclination_deg":102.258,"raan_deg":237.0287,"arg_perigee_deg":153.3129,"mean_anomaly_deg":206.9837,"bstar":0.0011009,"rev_number":56623,"period_min":115.85907118529,"perigee_km":1465.4331463567,"apogee_km":1523.3244786355,"semimajor_km":7872.5158124961,"source":"CELESTRAK","updated_at":"2026-05-25T13:38:11.436608Z"}}